Flag for U.S.A. Weather past 2 weeks in Hampton, Virginia, U.S.A.

Now
28 °F

Clear.


Feels Like: 18 °F
Forecast: 24 / 30 °F
Wind: 10 mph from Northeast

Location: Langley Air Force Base

Current Time: Feb 28, 2015 at 12:59:20 AM

Latest Report: Feb 27, 2015 at 11:58 PM


Visibility: 10 mi

Pressure: 30.64 "Hg

Humidity: 68%

Dew point: 18 °F

Location of HamptonLocation

Historic Weather in Hampton — Graph

°F

Hampton temperature yesterday

Maximum temperature yesterday: 34 °F (at 11:58 AM)
Minimum temperature yesterday: 19 °F (at 2:58 AM)
Average temperature yesterday: 27 °F

Past Weeks' High & Low Weather Summary

 TemperatureHumidityPressure
High48 °F (Feb 14, 1:58 PM)100% (Feb 22, 6:03 AM)30.64 "Hg (Feb 22, 6:03 AM)
Low6 °F (Feb 20, 6:58 AM)18% (Feb 15, 3:58 PM)29.51 "Hg (Feb 14, 7:58 PM)
Average26 °F63%30.14 "Hg
* Reported Feb 12 11:58 PM — Feb 27 11:58 PM, Hampton, Weather by CustomWeather, © 2015

Note: Actual official high and low records may vary slightly from our data, if they occured in-between our weather recording intervals... More about our weather records

Advertising

Hampton weather history for previous 24 hours

 ConditionsComfort  
Time TempWeatherWind HumidityBarometerVisibility
11:58 PM
Fri, Feb 27
28 °FClear.10 mph68%30.64 "Hg10 mi
10:58 PM27 °FClear.9 mph77%30.63 "Hg10 mi
9:58 PM28 °FClear.9 mph79%30.60 "Hg10 mi
8:58 PM28 °FClear.10 mph77%30.58 "Hg10 mi
7:58 PM29 °FClear.8 mph74%30.56 "Hg10 mi
6:58 PM30 °FClear.8 mph76%30.54 "Hg10 mi
5:58 PM30 °FClear.9 mph77%30.51 "Hg9 mi
4:58 PM32 °FOvercast.15 mph75%30.48 "Hg9 mi
3:58 PM32 °FOvercast.13 mph77%30.48 "Hg9 mi
3:03 PM32 °FPartly sunny.13 mph80%30.44 "Hg9 mi
2:58 PM33 °FScattered clouds.12 mph77%30.46 "Hg9 mi
1:58 PM33 °FPartly sunny.15 mph69%30.43 "Hg9 mi
12:58 PM33 °FOvercast.10 mph67%30.43 "Hg10 mi
11:58 AM34 °FOvercast.7 mph71%30.41 "Hg9 mi
10:58 AM33 °FOvercast.5 mph73%30.40 "Hg8 mi
9:58 AM30 °FSunny.3 mph87%30.38 "Hg8 mi
8:58 AM29 °FIce fog.1 mph94%30.38 "Hg5 mi
8:03 AM27 °FIce fog.1 mph93%30.33 "Hg3 mi
7:58 AM26 °FIce fog.1 mph94%30.35 "Hg2 mi
6:58 AM24 °FIce fog.No wind94%30.31 "Hg2 mi
6:03 AM21 °FIce fog.1 mph93%30.26 "Hg1 mi
5:58 AM21 °FIce fog.1 mph93%30.28 "Hg1 mi
4:58 AM24 °FIce fog.No wind94%30.26 "Hg3 mi
3:58 AM23 °FIce fog.2 mph93%30.24 "Hg4 mi
3:03 AM19 °FIce fog.6 mph93%30.18 "Hg0 mi
2:58 AM19 °FIce fog.3 mph91%30.21 "Hg0 mi
2:03 AM21 °FIce fog.No wind93%30.20 "Hg0 mi
1:58 AM22 °FIce fog.No wind93%30.22 "Hg0 mi
12:58 AM24 °FIce fog.3 mph94%30.20 "Hg0 mi
12:48 AM23 °FIce fog.2 mph93%30.18 "Hg0 mi
Weather by CustomWeather, © 2015

See weather overviewHow to use our weather pages